Location: Mohawk View
(42.7837°N, 73.7885°W)
Time: 02:18:58
(UTC+00:00)

Meteor 1-11 - Pass Details

Date: 17 June 2021
Orbit: 842 x 885 km, 81.2° (Epoch: 02 August)

Event Time Altitude Azimuth Distance (km) Brightness Sun altitude
Exits shadow 04:59:15 53° 144° (SE) 1,041 4.3 -23.8°
Maximum altitude 05:00:19 63° 96° (E) 941 4.3 -23.8°
Drops below altitude 10° 05:05:51 10° 16° (NNE) 2,474 7.6 -23.8°
Sets 05:08:17 0° 14° (NNE) 3,411 8.7 -23.8°
